TimeEST,TemperatureF,Dew PointF,Humidity,Sea Level PressureIn,VisibilityMPH,Wind Direction,Wind SpeedMPH,Gust SpeedMPH,PrecipitationIn,Events,Conditions,WindDirDegrees,DateUTC
12:15 AM,28.9,24.8,84,30.35,10.0,Calm,Calm,-,N/A,,Clear,0,2013-02-10 05:15:00
12:35 AM,29.3,24.8,83,30.36,10.0,Calm,Calm,-,N/A,,Clear,0,2013-02-10 05:35:00
12:55 AM,27.5,23.9,86,30.36,10.0,Calm,Calm,-,N/A,,Clear,0,2013-02-10 05:55:00
1:15 AM,28.6,25.0,86,30.36,10.0,Calm,Calm,-,N/A,,Clear,0,2013-02-10 06:15:00
1:35 AM,27.7,24.3,87,30.36,10.0,Calm,Calm,-,N/A,,Clear,0,2013-02-10 06:35:00
1:55 AM,27.5,24.1,87,30.36,10.0,Calm,Calm,-,N/A,,Clear,0,2013-02-10 06:55:00
2:15 AM,28.0,25.2,89,30.37,10.0,Calm,Calm,-,N/A,,Clear,0,2013-02-10 07:15:00
2:35 AM,26.8,24.1,90,30.37,10.0,Calm,Calm,-,N/A,,Clear,0,2013-02-10 07:35:00
2:55 AM,27.3,24.3,88,30.37,10.0,Calm,Calm,-,N/A,,Clear,0,2013-02-10 07:55:00
3:15 AM,27.9,25.2,90,30.37,10.0,Calm,Calm,-,N/A,,Clear,0,2013-02-10 08:15:00
3:35 AM,27.5,24.4,88,30.38,10.0,Calm,Calm,-,N/A,,Clear,0,2013-02-10 08:35:00
3:55 AM,27.1,24.6,90,30.38,10.0,Calm,Calm,-,N/A,,Clear,0,2013-02-10 08:55:00
4:15 AM,26.1,23.5,90,30.38,10.0,Calm,Calm,-,N/A,,Clear,0,2013-02-10 09:15:00
4:35 AM,25.7,23.4,91,30.38,10.0,Calm,Calm,-,N/A,,Clear,0,2013-02-10 09:35:00
4:55 AM,25.5,23.0,90,30.38,10.0,Calm,Calm,-,N/A,,Clear,0,2013-02-10 09:55:00
5:15 AM,26.1,23.7,91,30.38,10.0,Calm,Calm,-,N/A,,Clear,0,2013-02-10 10:15:00
5:35 AM,26.1,23.7,91,30.39,10.0,Calm,Calm,-,N/A,,Clear,0,2013-02-10 10:35:00
5:55 AM,26.6,24.4,92,30.39,10.0,Calm,Calm,-,N/A,,Clear,0,2013-02-10 10:55:00
6:15 AM,26.6,24.3,91,30.40,10.0,Calm,Calm,-,N/A,,Clear,0,2013-02-10 11:15:00
6:35 AM,27.5,24.8,90,30.41,10.0,Calm,Calm,-,N/A,,Clear,0,2013-02-10 11:35:00
6:55 AM,27.5,24.8,90,30.41,10.0,Calm,Calm,-,N/A,,Clear,0,2013-02-10 11:55:00
7:15 AM,28.4,25.9,90,30.43,10.0,Calm,Calm,-,N/A,,Clear,0,2013-02-10 12:15:00
7:35 AM,28.2,25.7,90,30.43,10.0,Calm,Calm,-,N/A,,Clear,0,2013-02-10 12:35:00
7:55 AM,29.5,26.6,89,30.45,10.0,Calm,Calm,-,N/A,,Clear,0,2013-02-10 12:55:00
8:15 AM,30.4,27.5,89,30.46,10.0,Calm,Calm,-,N/A,,Clear,0,2013-02-10 13:15:00
8:35 AM,31.6,28.4,88,30.46,10.0,Calm,Calm,-,N/A,,Clear,0,2013-02-10 13:35:00
8:55 AM,32.5,28.6,85,30.47,10.0,Calm,Calm,-,N/A,,Clear,0,2013-02-10 13:55:00
9:15 AM,34.9,29.8,82,30.46,10.0,Calm,Calm,-,N/A,,Clear,0,2013-02-10 14:15:00
9:35 AM,37.9,29.7,72,30.45,10.0,Calm,Calm,-,N/A,,Clear,0,2013-02-10 14:35:00
9:55 AM,41.2,29.3,63,30.45,10.0,Calm,Calm,-,N/A,,Clear,0,2013-02-10 14:55:00
10:15 AM,46.6,23.7,41,30.45,10.0,SE,5.8,-,N/A,,Clear,140,2013-02-10 15:15:00
10:35 AM,48.9,17.2,28,30.46,10.0,ESE,4.6,-,N/A,,Clear,120,2013-02-10 15:35:00
10:55 AM,50.2,16.9,27,30.46,10.0,ESE,3.5,-,N/A,,Clear,110,2013-02-10 15:55:00
11:15 AM,50.5,16.3,26,30.45,10.0,SE,8.1,-,N/A,,Clear,140,2013-02-10 16:15:00
11:35 AM,51.8,16.7,25,30.45,10.0,SSE,5.8,-,N/A,,Clear,160,2013-02-10 16:35:00
11:55 AM,52.7,15.1,23,30.44,10.0,SSE,8.1,-,N/A,,Clear,150,2013-02-10 16:55:00
12:15 PM,53.6,13.3,20,30.42,10.0,ESE,10.4,-,N/A,,Clear,120,2013-02-10 17:15:00
12:35 PM,54.9,16.5,22,30.40,10.0,SE,10.4,-,N/A,,Clear,130,2013-02-10 17:35:00
12:55 PM,55.4,15.3,21,30.38,10.0,ESE,5.8,-,N/A,,Clear,120,2013-02-10 17:55:00
1:15 PM,56.5,16.2,21,30.37,10.0,SSE,6.9,-,N/A,,Clear,160,2013-02-10 18:15:00
1:35 PM,55.9,15.8,21,30.38,10.0,SE,8.1,-,N/A,,Clear,140,2013-02-10 18:35:00
1:55 PM,58.1,18.1,21,30.35,10.0,SE,4.6,-,N/A,,Clear,130,2013-02-10 18:55:00
2:15 PM,58.8,18.7,21,30.33,10.0,SE,9.2,-,N/A,,Clear,140,2013-02-10 19:15:00
2:35 PM,58.8,19.4,22,30.32,10.0,SE,6.9,-,N/A,,Clear,130,2013-02-10 19:35:00
2:55 PM,58.5,21.6,24,30.31,10.0,SSE,6.9,-,N/A,,Clear,160,2013-02-10 19:55:00
3:15 PM,59.5,26.1,28,30.30,10.0,SE,10.4,16.1,N/A,,Clear,140,2013-02-10 20:15:00
3:35 PM,59.4,29.1,32,30.30,10.0,SSE,6.9,-,N/A,,Clear,150,2013-02-10 20:35:00
3:55 PM,59.5,30.6,33,30.30,10.0,ESE,9.2,-,N/A,,Clear,120,2013-02-10 20:55:00
4:15 PM,57.7,32.2,38,30.29,10.0,SSE,6.9,-,N/A,,Mostly Cloudy,150,2013-02-10 21:15:00
4:35 PM,57.7,33.4,40,30.29,10.0,ESE,5.8,-,N/A,,Overcast,110,2013-02-10 21:35:00
4:55 PM,57.4,34.3,42,30.29,10.0,ESE,4.6,-,N/A,,Overcast,110,2013-02-10 21:55:00
5:15 PM,57.2,35.1,43,30.28,10.0,ESE,4.6,-,N/A,,Overcast,110,2013-02-10 22:15:00
5:35 PM,56.3,35.6,46,30.26,10.0,ESE,4.6,-,N/A,,Mostly Cloudy,110,2013-02-10 22:35:00
5:55 PM,55.4,36.1,48,30.26,10.0,SE,3.5,-,N/A,,Scattered Clouds,130,2013-02-10 22:55:00
6:15 PM,55.2,36.9,50,30.26,10.0,East,4.6,-,N/A,,Mostly Cloudy,100,2013-02-10 23:15:00
6:35 PM,54.7,37.4,52,30.26,10.0,ESE,3.5,-,N/A,,Overcast,110,2013-02-10 23:35:00
6:55 PM,53.6,38.5,57,30.26,10.0,Calm,Calm,-,N/A,,Overcast,0,2013-02-10 23:55:00
7:15 PM,54.0,38.5,56,30.25,10.0,Calm,Calm,-,N/A,,Overcast,0,2013-02-11 00:15:00
7:35 PM,54.5,39.2,56,30.25,10.0,Calm,Calm,-,N/A,,Overcast,0,2013-02-11 00:35:00
7:55 PM,54.3,39.9,58,30.25,10.0,East,3.5,-,N/A,,Mostly Cloudy,90,2013-02-11 00:55:00
8:15 PM,54.7,40.5,59,30.26,10.0,Calm,Calm,-,N/A,,Overcast,0,2013-02-11 01:15:00
8:35 PM,52.2,41.0,66,30.26,10.0,Calm,Calm,-,N/A,,Overcast,0,2013-02-11 01:35:00
8:55 PM,52.2,40.1,64,30.27,10.0,Calm,Calm,-,N/A,,Overcast,0,2013-02-11 01:55:00
9:15 PM,52.0,40.5,65,30.29,10.0,Calm,Calm,-,N/A,Rain,Light Rain,0,2013-02-11 02:15:00
9:35 PM,50.5,44.4,80,30.29,10.0,Calm,Calm,-,N/A,Rain,Light Rain,0,2013-02-11 02:35:00
9:55 PM,49.3,45.5,87,30.31,5.0,Calm,Calm,-,0.01,Rain,Rain,0,2013-02-11 02:55:00
10:15 PM,48.2,45.7,91,30.28,7.0,ESE,5.8,-,0.02,Rain,Light Rain,110,2013-02-11 03:15:00
10:35 PM,48.6,45.9,90,30.26,3.0,Calm,Calm,-,0.07,Rain,Rain,0,2013-02-11 03:35:00
10:55 PM,49.5,47.5,93,30.23,7.0,SE,4.6,-,0.10,Rain,Rain,130,2013-02-11 03:55:00
11:15 PM,50.5,48.4,92,30.22,10.0,SE,5.8,-,0.01,Rain,Rain,140,2013-02-11 04:15:00
11:35 PM,50.5,48.4,92,30.21,10.0,SE,6.9,-,0.01,Rain,Rain,140,2013-02-11 04:35:00
11:55 PM,50.5,48.4,92,30.20,10.0,SE,6.9,-,0.01,Rain,Rain,140,2013-02-11 04:55:00